Regional Weather Roundup
Issued by NWS Charleston, WV

Home | Current Version | Previous Version | Graphics & Text | Print | Product List | Glossary On
Versions: 1 2 3 4 5 6 7 8 9 10 11 12 13 14 15 16 17 18 19 20 21 22 23 24 25 26 27 28 29 30 31 32 33 34 35 36 37 38 39 40 41 42 43 44 45 46 47 48 49 50
000
ASUS41 KRLX 032110
RWRRLX
West Virginia Regional Weather Roundup
National Weather Service Charleston WV
500 PM EDT MON AUG 03 2015

Note: "fair" indicates few or no clouds below 12,000 feet with no
significant weather and/or obstructions to visibility.

WVZ003-032200-
Northern Panhandle of West Virginia

CITY           SKY/WX    TMP DP  RH WIND       PRES   REMARKS
WHEELING       MOSUNNY   81  65  58 W6        29.83F
$$

WVZ009-032200-
Northwest West Virginia

CITY           SKY/WX    TMP DP  RH WIND       PRES   REMARKS
PARKERSBURG    MOSUNNY   88  62  41 SW10      29.86F
$$

WVZ006-032200-
Western West Virginia

CITY           SKY/WX    TMP DP  RH WIND       PRES   REMARKS
HUNTINGTON     SUNNY     87  65  47 SW13G18   29.86F
$$

WVZ015-032200-
West Central West Virginia

CITY           SKY/WX    TMP DP  RH WIND       PRES   REMARKS
CHARLESTON     MOSUNNY   87  62  43 SW15G21   29.87F
$$

WVZ022-031-032200-
North Central West Virginia

CITY           SKY/WX    TMP DP  RH WIND       PRES   REMARKS
CLARKSBURG     SUNNY     85  61  44 SW13      29.86F
MORGANTOWN     PTSUNNY   85  58  39 VRB7      29.86F
$$

WVZ025-035-042-045-032200-
Southern West Virginia

CITY           SKY/WX    TMP DP  RH WIND       PRES   REMARKS
BECKLEY        SUNNY     82  60  47 SW10      29.99F
LOGAN            N/A     84  63  48 SW9G15    29.90F
BLUEFIELD      SUNNY     84  57  39 W10       30.03S
LEWISBURG      SUNNY     85  55  34 SW12      29.97S
$$

WVZ047-032200-
Northern Mountains of West Virginia

CITY           SKY/WX    TMP DP  RH WIND       PRES   REMARKS
ELKINS         MOSUNNY   83  54  36 W7        29.92F
$$

WVZ052-032200-
Eastern Panhandle of West Virginia

CITY           SKY/WX    TMP DP  RH WIND       PRES   REMARKS
MARTINSBURG    PTSUNNY   90  59  35 SW8G17    29.81F
PETERSBURG     MOSUNNY   89  56  33 W9        29.85S
$$



USA.gov is the U.S. government's official web portal to all federal, state and local government web resources and services.